星链-30999 (STARLINK-30999 )

导读 | 星芒AI

STARLINK-30999 是 SpaceX 星链(Starlink)卫星互联网项目中的第 30999 颗卫星。该卫星属于低轨通信卫星群,旨在为全球用户提供高速、低延迟的互联网服务。它采用可重复使用的设计,具备先进的通信技术和自主避障功能,以确保在轨安全与高效运行。该卫星的发射进一步扩展了星链网络的覆盖范围,提升偏远地区的网络接入能力。

基本信息
目录编号:
58551
目录名称:
STARLINK-30999
国际标识:
2023-192W
轨道中心:
EARTH
卫星名称:
星链-30999
卫星全名:
星链-30999 (STARLINK-30999 )
卫星状态:
在轨 (已飞行693 天)
发射日期:
2023-12-08 UTC
国别 :
美国 (US)
星等 :
--
轨道信息
数据来源 国际轨道数据
星历时间: 2025-10-31T15:09:51+0800
6小时前
查看轨道信息
半长轴: 6853.433km
偏心率: 0.0001302
轨道倾角: 53.160°
近地点辐角 96.588°
升交点赤经 293.786°
平近点角 263.527°
近地点: 474.405km
远地点: 476.191km
周期: 94.107分钟
每日圈数: 15.30173
详细信息
固有亮度:
5
最大亮度:
0.3
卫星平台:
Starlink v2.0 mini
覆盖范围:
全球
运营商:
太空探索技术公司
运营商所在国:
美国
制造商(研发单位):
太空探索技术公司
制造商所在国:
美国
使用方式:
暂无
卫星简介
星链(Starlink)计划是由太空探索技术公司(SpaceX)提出的一个巨型低轨卫星互联网星座项目,计划在2019年至2024年间在太空搭建由约1.2万颗卫星组成的“星链”网络,其中1584颗将部署在地球上空550千米处的近地轨道,并从2020年开始工作。该卫星仍在工作。
2D轨道图
3D轨道图
轨道高度分析图
轨道倾角分析图
轨道综合分析图
查看轨道综合分析图